Flag for India Weather past 2 weeks in Mumbai, Maharashtra, India

Now
84 °F

Drizzle. Broken clouds.


Feels Like: 96 °F
Forecast: 81 / 85 °F
Wind: 5 mph from Southwest

Location: Bombay / Santacruz

Current Time: Aug 29, 2014 at 11:55:16 AM

Latest Report: Aug 29, 2014 at 11:10 AM


Visibility: 1 mi

Pressure: 29.68 "Hg

Humidity: 84%

Dew point: 79 °F

Location of MumbaiLocation

Historic Weather in Mumbai — Graph

°F

Mumbai temperature yesterday

Maximum temperature yesterday: 82 °F (at 11:10 AM)
Minimum temperature yesterday: 77 °F (at 4:40 AM)
Average temperature yesterday: 80 °F

Past Weeks' High & Low Weather Summary

 TemperatureHumidityPressure
High90 °F (Aug 23, 1:40 PM)100% (Aug 14, 6:40 PM)29.86 "Hg (Aug 14, 6:40 PM)
Low75 °F (Aug 27, 8:40 AM)66% (Aug 17, 12:40 PM)29.65 "Hg (Aug 21, 3:10 PM)
Average82 °F87%29.74 "Hg
* Reported Aug 14 10:40 AM — Aug 29 10:40 AM, Mumbai, Weather by CustomWeather, © 2014

Note: Actual official high and low records may vary slightly from our data, if they occured in-between our weather recording intervals... More about our weather records

Advertising

Mumbai weather history for previous 24 hours

 ConditionsComfort  
Time TempWeatherWind HumidityBarometerVisibility
10:40 AM
Aug 29
82 °FScattered showers. Broken clouds.7 mph89%29.68 "Hg1 mi
10:10 AM82 °FScattered showers. Broken clouds.6 mph89%29.68 "Hg2 mi
9:10 AM82 °FBroken clouds.3 mph89%29.68 "Hg1 mi
8:40 AM81 °FBroken clouds.3 mph94%29.68 "Hg1 mi
8:10 AM81 °FBroken clouds.3 mph94%29.68 "Hg1 mi
7:10 AM79 °FBroken clouds.7 mph94%29.65 "Hg1 mi
6:40 AM79 °FPartly cloudy.3 mph94%29.65 "Hg1 mi
6:10 AM79 °FPartly cloudy.No wind89%29.65 "Hg1 mi
5:40 AM77 °FPartly cloudy.No wind94%29.65 "Hg1 mi
5:10 AM79 °FPartly cloudy.5 mph89%29.65 "Hg1 mi
4:40 AM79 °FPartly cloudy.5 mph94%29.65 "Hg1 mi
4:10 AM79 °FPartly cloudy.3 mph100%29.65 "Hg1 mi
3:40 AM79 °FPartly cloudy.5 mph100%29.65 "Hg1 mi
3:10 AM79 °FPartly cloudy.5 mph100%29.65 "Hg1 mi
2:40 AM79 °FPartly cloudy.5 mph100%29.68 "Hg1 mi
2:10 AM79 °FPartly cloudy.3 mph100%29.68 "Hg1 mi
1:40 AM79 °FPartly cloudy.5 mph100%29.68 "Hg1 mi
1:10 AM81 °FPartly cloudy.3 mph94%29.68 "Hg1 mi
12:40 AM81 °FPartly cloudy.3 mph94%29.71 "Hg1 mi
12:10 AM81 °FPartly cloudy.3 mph94%29.71 "Hg1 mi
11:40 PM
Aug 28
81 °FPartly cloudy.No wind94%29.71 "Hg1 mi
11:10 PM81 °FPartly cloudy.3 mph94%29.71 "Hg1 mi
10:40 PM81 °FPartly cloudy.3 mph89%29.71 "Hg2 mi
10:10 PM81 °FPartly cloudy.6 mph89%29.71 "Hg2 mi
9:40 PM81 °FPartly cloudy.3 mph89%29.71 "Hg2 mi
8:40 PM81 °FPartly cloudy.3 mph89%29.71 "Hg2 mi
8:10 PM81 °FPartly cloudy.3 mph89%29.68 "Hg2 mi
7:40 PM81 °FPartly cloudy.3 mph89%29.68 "Hg2 mi
7:10 PM81 °FBroken clouds.5 mph89%29.68 "Hg2 mi
6:40 PM81 °FBroken clouds.6 mph89%29.65 "Hg2 mi
6:10 PM81 °FBroken clouds.3 mph89%29.65 "Hg2 mi
5:40 PM81 °FBroken clouds.6 mph89%29.65 "Hg2 mi
5:10 PM81 °FBroken clouds.8 mph94%29.65 "Hg2 mi
4:10 PM81 °FBroken clouds.9 mph94%29.65 "Hg2 mi
3:40 PM81 °FBroken clouds.8 mph94%29.65 "Hg2 mi
2:10 PM81 °FBroken clouds.8 mph89%29.68 "Hg2 mi
1:40 PM81 °FBroken clouds.10 mph89%29.71 "Hg2 mi
1:10 PM82 °FBroken clouds.8 mph84%29.71 "Hg2 mi
12:40 PM82 °FBroken clouds.9 mph84%29.71 "Hg2 mi
12:10 PM82 °FBroken clouds.8 mph84%29.71 "Hg2 mi
11:40 AM82 °FBroken clouds.6 mph84%29.74 "Hg2 mi
11:10 AM82 °FBroken clouds.No wind84%29.74 "Hg2 mi
Weather by CustomWeather, © 2014

See weather overviewHow to use our weather pages